Presure
141 114 127 134 252 239 276 257 288 338 310 353 323 295 296 283 302 301 337 299 274 244 245 251 246 235 247 259 223 238 235 205 204 205 199 206 202 206 183 193 183 190 181 179 178 180 185
139 131 131 144 226 280 293 279 287 316 327 345 326 320 293 285 284 294 297 317 287 257 242 250 231 246 247 247 242 228 236 230 220 203 205 201 197 199 204 190 187 187 178 183 185 179 176
126 133 165 133 231 275 271 276 308 341 300 330 310 315 307 303 281 281 287 296 311 290 260 241 251 241 239 255 244 226 245 235 237 219 206 208 199 201 199 192 200 198 194 200 193 180 183
131 131 209 127 134 250 292 268 174 338 364 343 302 279 274 275 302 284 271 285 284 298 258 265 259 241 238 232 251 251 238 239 241 226 244 232 204 199 200 199 191 199 196 196 201 201 205
119 147 143 115 134 211 247 285 341 347 356 314 419 584 431 291 288 287 286 276 271 276 289 343 254 252 242 248 236 227 247 231 237 227 223 228 237 217 196 194 194 196 191 196 195 200 205
156 139 124 145 235 129 294 306 323 354 321 491 458 444 431 436 405 274 283 268 263 267 267 290 326 294 248 246 231 229 231 239 236 228 228 221 237 225 214 218 204 200 197 198 198 197 202
97 140 154 140 153 144 295 330 352 323 464 543 501 530 470 471 512 402 293 271 263 256 264 269 298 316 280 246 248 238 228 234 236 229 237 238 218 230 216 228 219 214 207 205 205 208 211
122 192 143 145 242 286 300 339 353 342 564 529 535 538 449 490 547 505 386 277 265 253 258 259 266 298 284 278 270 248 245 232 230 234 226 225 226 243 231 223 223 211 215 220 215 220 224
129 93 153 197 131 344 337 347 339 568 557 534 439 452 480 437 510 496 492 286 266 252 247 255 258 263 299 285 267 268 288 260 232 232 221 229 226 244 238 240 220 216 230 229 221 217 212
182 177 190 144 309 336 354 355 333 547 545 459 455 454 449 454 442 472 471 323 270 259 245 242 256 257 264 302 269 263 262 268 265 232 226 225 233 236 245 236 230 221 225 228 219 227 224
135 107 199 175 289 350 352 356 373 590 491 457 444 438 444 425 474 458 461 433 270 258 243 249 250 254 256 266 330 266 253 259 257 242 235 231 232 226 233 239 223 231 245 231 236 222 220
141 181 170 132 300 338 368 354 608 562 476 457 439 441 429 452 469 459 449 395 286 250 246 245 243 252 253 251 317 289 269 258 248 257 250 240 231 239 247 242 249 253 247 245 236 237 223
127 190 233 242 297 325 367 351 470 486 461 444 417 425 437 466 485 442 448 371 312 265 248 234 238 248 257 285 296 300 275 259 262 252 252 256 254 244 251 257 283 276 263 247 251 246 229
208 214 234 254 286 322 360 332 408 447 433 433 432 433 452 491 430 458 359 360 341 287 249 239 234 250 246 294 289 289 296 299 254 256 266 274 286 280 274 265 252 246 241 237 237 236 230
218 221 188 293 285 328 358 329 411 427 449 452 472 452 454 467 448 359 338 324 312 325 243 238 234 249 297 283 277 272 273 273 266 266 268 265 252 254 251 244 234 234 238 239 239 239 235
202 228 194 210 291 327 342 330 432 420 436 444 454 449 437 454 345 345 322 326 317 292 248 226 240 249 274 267 259 254 252 252 249 242 244 245 249 249 247 247 244 240 235 229 226 220 219
219 233 202 307 284 328 364 328 420 425 440 458 442 441 484 385 334 327 323 320 302 260 239 236 237 276 262 254 249 246 242 236 232 231 231 230 227 228 228 218 215 216 223 246 248 253 250
220 238 285 287 285 331 363 324 400 425 466 503 459 433 365 342 330 313 318 288 256 241 244 235 274 258 247 248 244 236 230 232 227 229 229 224 224 273 265 258 251 241 238 232 229 227 313
236 238 296 291 244 348 340 324 399 448 470 531 533 372 356 334 324 319 280 255 240 237 244 279 259 252 245 239 232 231 229 229 224 231 267 261 259 247 239 230 224 219 218 266 265 265 254
117 273 241 276 274 349 337 329 423 467 473 499 496 368 357 335 332 276 253 252 247 241 285 263 249 244 238 233 234 234 226 279 268 258 251 240 229 220 214 214 216 243 258 249 254 244 245
204 288 219 273 265 330 333 334 303 457 486 511 374 360 330 340 267 250 262 243 246 276 273 253 248 237 232 229 225 222 218 220 210 214 213 214 213 215 218 217 236 245 236 236 230 237 236
251 283 301 273 261 305 135 349 314 359 427 425 374 359 326 272 256 259 229 218 254 281 257 247 239 233 228 223 223 216 214 210 211 214 216 219 226 216 214 241 237 237 227 228 226 238 239
307 255 173 266 263 290 293 320 334 287 399 355 331 317 293 261 247 207 231 206 218 270 256 247 242 232 226 224 225 220 220 219 215 219 217 217 215 240 232 207 226 233 217 219 224 220 240
302 253 276 270 271 275 291 283 317 330 280 386 343 315 317 308 240 248 224 234 232 220 255 249 240 229 227 228 225 225 225 224 226 213 215 240 238 223 241 230 227 224 202 218 213 222 227
259 253 264 287 274 279 275 283 324 301 327 276 381 361 326 326 254 241 240 231 235 232 237 248 242 232 230 228 228 225 217 214 222 225 209 220 219 236 178 232 216 210 206 221 222 224 224
310 288 290 291 270 278 267 279 281 294 287 309 276 365 377 364 364 256 164 246 228 208 232 246 192 236 232 235 228 231 230 226 210 201 230 224 248 242 236 166 218 218 219 207 218 211 223
266 302 279 270 281 261 266 268 279 307 270 268 297 273 359 357 366 327 252 240 244 238 214 235 219 246 244 241 244 241 233 242 206 225 222 232 207 239 234 201 204 225 210 224 219 213 221
302 288 269 269 295 283 263 264 271 279 300 292 311 284 268 354 354 346 279 251 245 242 238 232 229 220 241 247 239 246 212 212 215 231 221 232 223 171 174 202 233 150 188 221 218 215 213
287 279 299 272 283 294 276 268 267 268 308 276 290 314 273 266 346 341 336 267 258 246 245 233 235 219 231 205 227 227 228 221 215 212 203 233 211 210 221 191 223 220 211 226 203 211 223
Wind_Speed
89 50 69 89 105 84 90 90 74 56 49 41 38 43 49 47 49 51 48 80 88 84 85 88 84 79 83 81 86 90 91 88 88 89 90 89 92 92 99 97 97 93 96 95 91 88 92
82 82 82 73 95 95 85 87 76 64 57 48 39 41 47 55 53 53 56 57 85 92 85 91 79 82 84 83 82 88 90 92 90 88 92 90 91 89 86 97 99 101 95 96 99 97 91
70 76 80 89 103 107 94 91 75 63 59 52 51 44 44 52 60 57 57 58 59 85 92 85 90 83 79 87 82 84 86 89 89 93 92 95 90 90 88 91 88 93 100 98 104 100 91
77 82 94 79 57 115 95 99 73 73 65 54 52 58 56 51 58 63 60 60 61 65 83 94 91 84 84 80 80 85 83 84 87 89 89 91 94 90 89 88 91 92 91 93 93 93 93
58 69 96 49 87 103 91 100 88 83 74 66 64 44 50 72 61 64 67 63 62 64 63 61 87 89 84 83 78 79 83 84 85 88 86 86 88 94 89 90 91 91 90 93 90 92 90
90 70 71 90 119 77 106 100 94 90 83 56 55 52 48 52 65 58 71 67 65 64 65 60 69 83 83 86 80 81 80 82 82 85 85 83 85 88 94 95 99 96 92 91 92 90 91
47 97 96 100 101 98 109 99 99 90 63 35 39 32 34 36 30 66 68 75 70 66 60 53 47 69 83 87 89 82 80 81 83 80 79 81 83 83 93 90 94 94 96 97 97 95 94
69 100 72 97 126 113 109 101 101 94 33 30 21 14 23 18 16 33 72 79 74 64 59 54 54 48 71 76 84 85 82 82 82 81 80 79 79 85 87 85 87 89 90 92 92 91 87
72 42 99 109 83 107 105 104 100 31 24 12 27 20 11 17 13 30 38 75 76 67 57 57 57 52 49 71 71 69 76 90 83 80 76 80 78 79 80 82 84 85 86 89 88 88 86
88 81 107 98 113 108 106 104 103 33 11 25 17 14 5 6 8 28 40 80 76 72 61 59 52 49 50 43 74 71 70 75 80 81 79 74 75 75 75 79 84 83 84 86 85 85 83
89 57 99 99 110 111 104 104 98 25 15 14 18 14 6 9 9 31 44 62 77 73 63 58 52 50 46 42 48 68 70 70 76 84 81 79 76 72 74 82 79 83 82 83 85 81 79
67 102 102 77 114 106 106 103 30 12 16 14 17 13 9 9 13 33 54 73 76 69 68 51 45 47 43 41 37 61 67 72 68 71 79 77 73 77 77 75 77 78 79 82 80 83 76
80 103 123 124 113 107 105 104 58 33 24 22 20 16 12 7 13 44 64 72 79 76 53 48 45 43 40 36 36 38 64 64 71 68 68 71 73 69 69 68 64 60 64 71 75 78 74
108 113 125 92 112 106 103 101 76 47 40 28 18 13 10 6 37 56 68 67 72 72 54 53 42 38 36 37 34 34 37 43 53 56 62 63 61 56 53 54 55 57 62 69 69 71 74
114 117 106 107 110 99 100 98 70 53 39 27 20 10 8 21 44 66 63 63 67 60 59 50 36 34 37 35 32 32 33 35 34 36 38 40 42 44 46 49 53 56 59 64 67 70 69
104 119 80 75 104 95 98 94 59 54 47 22 19 13 25 36 63 67 64 64 60 56 55 36 36 35 36 34 32 31 30 30 31 31 29 33 37 39 42 45 46 49 55 56 59 62 67
110 119 90 95 101 96 93 89 65 58 48 24 11 16 13 67 60 63 66 57 49 49 43 37 33 37 37 35 33 31 28 29 31 33 34 34 36 39 41 40 43 47 52 44 49 49 56
109 115 95 95 96 96 89 86 68 57 41 20 8 37 63 63 68 55 52 46 46 36 36 30 37 34 30 27 28 29 30 31 30 29 29 31 36 16 15 17 20 28 32 40 48 53 24
111 111 88 90 81 94 86 81 65 46 35 24 16 52 59 58 52 53 48 44 36 30 30 39 36 33 31 30 31 30 30 26 25 23 22 19 17 18 23 25 28 36 39 16 15 19 29
55 96 74 91 90 90 84 78 58 37 28 31 29 59 55 53 51 45 39 37 35 29 38 37 34 32 30 29 28 25 22 24 24 22 21 21 21 24 26 29 29 21 9 14 9 14 20
90 82 62 86 88 87 81 76 70 28 21 33 37 38 31 46 33 23 32 23 21 30 35 33 34 32 30 29 26 24 22 20 18 19 19 20 22 21 20 22 16 9 9 13 15 15 19
98 78 73 80 85 83 63 74 69 55 26 38 28 30 26 29 19 24 14 12 19 33 35 34 34 34 31 30 29 27 25 23 21 20 18 17 13 18 20 10 6 5 4 7 12 20 20
69 83 63 78 81 73 72 81 65 58 24 21 11 10 23 16 13 4 16 4 15 34 33 34 34 33 32 30 29 26 25 24 22 18 16 17 15 11 12 11 8 5 12 5 9 14 24
67 78 72 71 73 69 73 68 72 55 50 12 12 3 17 26 12 23 13 22 23 21 32 32 35 33 31 32 28 27 25 22 19 17 17 10 12 12 17 16 13 7 15 2 10 14 21
78 75 70 62 65 61 62 64 65 62 47 41 8 4 9 23 28 20 28 25 28 27 27 33 35 33 31 30 29 26 20 20 17 16 18 16 13 10 17 19 14 16 13 1 6 11 13
63 61 58 59 63 58 57 64 62 60 48 43 33 11 14 20 24 34 13 38 27 11 31 33 18 33 33 32 27 26 22 20 20 21 13 17 16 15 16 20 16 17 9 12 6 7 13
67 58 58 59 57 59 53 54 60 59 47 41 39 28 13 13 17 29 39 35 38 38 20 34 30 36 35 34 33 28 24 21 20 14 15 17 9 13 11 9 13 15 9 4 8 7 9
58 55 58 55 60 53 52 52 53 56 55 50 37 31 25 18 18 21 44 45 45 40 40 34 34 31 34 34 30 27 22 20 19 16 16 19 14 20 20 17 19 13 5 13 12 9 6
58 56 53 52 58 57 48 50 49 49 54 44 44 37 26 23 23 24 27 55 52 47 47 37 37 29 33 23 28 26 26 21 19 19 16 22 14 17 16 7 18 21 12 15 12 8 10
Wind_Direction
349 346 352 351 353 346 346 345 337 333 327 302 283 271 269 264 252 245 245 234 230 232 234 232 234 234 232 231 230 229 228 231 233 233 234 235 237 239 241 240 243 243 242 244 246 246 247
346 354 354 350 349 347 342 341 335 332 324 311 292 273 257 259 255 248 242 238 231 227 232 232 232 235 234 234 231 231 230 229 230 232 235 236 237 238 241 241 242 243 246 246 246 248 249
358 355 346 352 350 345 343 341 334 330 322 307 300 280 265 246 251 246 244 237 236 231 227 231 232 232 232 234 232 229 231 231 231 230 232 233 237 238 239 240 244 245 245 247 249 250 250
353 354 344 356 348 346 339 341 333 331 322 310 298 292 280 259 241 242 241 237 234 235 233 231 230 230 229 228 231 231 231 231 231 232 232 232 235 238 239 240 241 244 245 248 250 251 253
353 345 341 352 346 346 340 338 335 332 323 313 297 294 278 262 247 235 231 232 230 232 233 230 230 231 230 230 226 226 232 229 231 232 232 233 233 234 240 241 242 244 244 247 249 252 254
348 348 352 339 349 344 340 336 334 331 326 308 301 289 276 263 247 236 230 234 230 228 229 231 227 229 228 229 227 226 228 231 231 232 233 232 235 234 235 237 239 244 247 248 250 252 255
341 341 335 342 334 335 340 337 337 332 318 311 307 297 283 269 258 233 219 227 229 231 227 230 230 224 228 225 227 226 226 229 231 232 232 235 234 237 236 237 239 241 244 248 251 252 253
356 346 340 338 347 342 340 340 340 335 314 314 313 327 291 286 275 220 219 218 225 229 224 223 226 224 223 224 229 229 224 227 229 232 232 234 236 237 239 238 240 241 243 245 248 251 252
334 348 332 346 344 344 342 342 340 327 323 327 325 314 339 269 278 208 195 209 218 225 225 220 222 221 225 223 222 227 228 229 228 231 233 236 238 241 240 241 241 242 245 246 248 250 252
336 340 346 341 342 345 346 345 343 332 324 334 332 336 326 347 240 198 188 209 209 220 222 224 219 222 226 225 220 222 224 224 226 229 232 235 241 241 241 240 242 244 246 247 247 250 251
341 342 342 339 342 346 347 347 345 331 351 337 335 332 326 214 246 186 175 166 204 212 221 218 218 220 223 226 217 221 221 225 224 224 231 234 238 239 242 241 243 244 245 249 249 249 252
341 345 341 342 343 349 349 348 343 15 2 356 357 345 320 291 216 177 167 167 202 211 217 215 217 220 221 219 214 218 221 222 224 226 229 233 236 240 242 243 246 248 248 249 250 252 253
352 345 344 343 344 349 350 350 3 14 11 9 355 352 336 265 201 163 158 172 195 204 211 216 216 220 220 211 207 209 220 223 225 229 232 235 237 239 243 247 247 245 247 250 252 253 255
340 343 343 343 344 351 352 352 355 3 1 357 350 350 20 131 159 161 162 171 183 203 195 211 214 219 219 197 201 202 208 220 225 230 235 237 239 237 238 240 246 247 251 253 255 256 255
340 343 343 344 345 354 354 355 357 5 3 360 352 66 78 134 158 153 160 169 184 187 192 206 209 215 191 190 187 192 197 198 204 210 216 222 230 234 239 244 249 252 253 257 258 260 260
340 342 342 344 346 355 356 357 1 3 6 17 29 96 131 149 151 155 161 173 174 182 189 192 204 200 187 185 181 188 193 196 203 213 216 223 230 238 241 245 250 253 258 262 264 262 263
341 340 342 346 346 358 357 359 1 2 2 6 45 120 135 148 153 157 167 170 167 174 185 194 197 187 182 183 183 187 191 199 208 216 223 228 235 240 245 251 256 258 259 263 267 268 269
340 338 341 344 346 358 1 3 0 360 4 30 50 135 147 148 154 163 161 152 165 172 184 189 179 179 181 183 185 190 201 205 213 221 228 233 238 215 215 220 233 246 254 257 265 270 304
338 337 343 344 346 359 4 7 2 2 13 36 87 148 152 158 160 157 146 157 166 170 180 174 173 172 177 182 191 198 204 209 216 215 175 177 181 191 210 225 239 246 256 286 325 345 310
346 335 342 342 346 359 5 12 4 11 24 59 114 149 160 158 163 146 155 162 167 171 171 171 172 170 179 187 192 196 198 167 166 168 171 184 200 216 228 240 253 281 276 294 360 333 328
336 338 344 342 344 359 5 14 15 27 54 84 134 145 142 161 146 148 156 154 160 168 169 171 172 179 182 185 191 193 198 197 207 208 212 216 225 235 246 257 265 245 301 315 312 345 333
332 337 342 340 341 358 348 14 16 19 108 121 139 147 147 147 145 155 157 180 164 168 170 175 180 183 187 195 196 199 204 209 212 214 220 225 232 245 258 229 221 178 246 14 359 10 4
332 334 333 338 339 357 1 5 14 16 28 31 49 114 149 172 161 278 170 164 198 172 179 181 183 189 197 203 201 206 209 209 213 217 220 232 238 196 228 172 189 115 266 293 350 325 22
329 334 337 338 340 350 1 358 3 15 18 16 10 355 186 179 201 179 208 198 195 201 188 189 191 198 202 206 208 209 211 212 212 212 224 209 212 230 184 189 188 208 283 314 311 20 8
329 332 334 340 340 353 352 359 4 2 12 18 347 301 243 214 200 203 201 219 205 202 197 197 200 205 209 212 213 214 207 210 211 214 229 244 247 187 236 188 226 250 262 261 360 16 7
322 329 336 339 336 350 346 355 356 358 3 5 15 337 229 224 221 209 275 208 227 223 206 202 228 210 214 217 216 216 215 210 208 223 224 238 205 189 196 246 217 230 212 261 305 289 16
324 324 332 333 335 336 342 348 355 354 353 358 356 6 323 259 238 222 215 225 216 219 227 210 215 210 217 220 221 221 215 210 216 223 226 214 203 179 195 204 224 203 252 256 268 295 337
318 323 328 330 339 339 336 339 346 351 348 345 343 343 348 297 251 241 220 226 227 221 222 223 220 221 215 216 215 210 212 209 218 208 228 203 214 231 242 234 210 265 24 237 255 261 316
318 323 323 330 334 339 337 335 338 340 341 342 334 326 330 330 268 236 229 224 225 226 221 226 219 220 218 215 218 217 213 213 218 226 229 212 229 190 184 156 206 214 250 234 260 297 283